[[{"header":{"parameterUnit":"m.s-1","parameterCategory":1,"la1":30.2991,"la2":30.254,"lo1":-89.0895,"lo2":-89.0444,"dy":0.0017,"dx":0.0017,"nx":28,"ny":28,"refTime":"2024-03-20T21:00:00:Z","depth":0,"parameterNumber":2,"parameterNumberName":"U-component_of_WINDS"},"data":[0,0,0,0,0,0,0,0,0,0,0,0,0,0,0,0,0,0,0,0,0,0,0,0,0,0,0,0,0,0,0,0,0,0,0,0,0,0,0,0,0,0,0,0,0,0,0,0,0,0,0,0,0,0,0,0,0,0,1.5791,1.5792,0,1.5896,1.5897,1.5899,1.5911,1.591,1.5909,1.5908,1.602,1.6024,1.6028,0,0,0,0,0,0,0,0,0,0,0,0,0,1.5602,1.5606,1.5791,1.5792,1.5793,1.5896,1.5897,1.5899,1.5912,1.591,1.5909,1.5908,1.6019,1.6023,1.6028,0,0,0,0,0,0,0,0,0,0,0,0,0,1.5694,1.5607,1.5791,1.5812,1.5815,1.5896,1.5898,1.5899,1.5912,1.591,1.5909,1.5907,1.6017,1.6023,1.6029,1.6097,0,0,1.6047,1.6049,0,0,0,0,0,0,0,0,1.5688,1.5701,1.5807,1.5811,1.5814,1.5889,1.5872,1.5966,1.5912,1.5875,1.5908,1.5906,1.5978,1.5987,1.601,1.6102,1.6107,1.6047,1.6051,1.6053,1.6055,0,0,0,0,0,0,0,1.5682,1.5696,1.5833,1.5809,1.5813,1.5817,1.5828,1.589,1.5934,1.5878,1.5879,1.5891,1.5979,1.6004,1.6013,1.6108,1.6047,1.6052,1.6056,1.6058,1.6259,1.626,0,0,0,0,0,0,1.5671,1.5691,1.5829,1.5836,1.5746,1.5822,1.5834,1.5867,1.5933,1.5942,1.5893,1.5892,1.5995,1.6006,1.6017,1.6099,1.6053,1.6059,1.6062,1.6257,1.6259,1.6261,0,0,0,0,0,0,1.5667,1.5684,1.5825,1.5764,1.5782,1.5826,1.5863,1.5869,1.5895,1.5944,1.5953,1.591,1.5994,1.6009,1.6076,1.6103,1.6062,1.6067,1.6255,1.6258,1.626,1.6266,0,0,0,0,0,0,1.5662,1.5682,1.5708,1.5764,1.5785,1.5882,1.5865,1.5873,1.5904,1.5904,1.5963,1.5971,1.5994,1.6067,1.6082,1.6111,1.6072,1.6253,1.6256,1.6259,1.6263,1.6268,1.6272,0,0,0,0,0,1.5655,1.5707,1.5709,1.5726,1.5818,1.5883,1.5895,1.592,1.5906,1.5933,1.5965,1.5969,1.6098,1.6074,1.6091,1.6122,1.6251,1.6255,1.6259,1.6261,1.6267,1.6272,0,0,0,0,0,0,1.5654,1.5714,1.5718,1.5789,1.5831,1.5885,1.592,1.5926,1.5973,1.5971,1.6,1.6014,1.6079,1.6108,1.6079,1.619,1.6173,1.6181,1.6169,1.6175,1.618,1.6172,1.6076,0,0,0,0,0,1.5662,1.5709,1.5759,1.5817,1.5838,1.5875,1.5904,1.5919,1.5964,1.5982,1.6019,1.6063,1.6113,1.6146,1.6195,1.6267,1.628,1.6297,1.6301,1.6305,1.6311,1.635,1.6358,1.6274,1.6274,1.6274,0,0,1.568,1.5718,1.5746,1.5818,1.5852,1.59,1.589,1.5942,1.5978,1.5991,1.6056,1.6084,1.6135,1.6204,1.6237,1.623,1.6337,1.631,1.6313,1.6317,1.6355,1.6363,1.637,1.6277,1.6276,1.6276,0,0,1.5735,1.5769,1.582,1.5854,1.5905,1.5929,1.5941,1.5995,1.6013,1.6079,1.6088,1.6132,1.6219,1.6254,1.6284,1.635,1.6356,1.6366,1.639,1.6427,1.6434,1.644,1.6462,1.647,1.6372,1.6372,1.6372,0,1.5751,1.5823,1.5846,1.5897,1.5928,1.594,1.5991,1.6024,1.6089,1.611,1.6101,1.6208,1.6243,1.632,1.6336,1.636,1.6375,1.6359,1.6431,1.6437,1.6443,1.6465,1.6473,1.6373,1.6372,1.6372,1.6372,0,1.5838,1.5888,1.5923,1.5984,1.6019,1.607,1.6101,1.6134,1.6146,1.617,1.6236,1.6279,1.6336,1.6356,1.6368,1.6434,1.6428,1.6424,1.6408,1.6451,1.6472,1.6481,1.6374,1.6373,1.6373,1.6373,0,0,1.5898,1.5969,1.5981,1.6008,1.6064,1.6103,1.6155,1.6209,1.6236,1.628,1.6324,1.6395,1.6392,1.6425,1.6442,1.6474,1.6523,1.6467,1.6468,1.6475,1.6597,1.6598,1.6608,1.6527,1.6528,1.653,1.6592,0,1.5959,1.605,1.6071,1.6149,1.6195,1.6206,1.6251,1.629,1.6314,1.6357,1.6385,1.6434,1.6427,1.6446,1.6479,1.651,1.6548,1.6506,1.6568,1.6569,1.6554,1.6619,1.6621,1.6678,1.66,1.6602,1.6603,0,1.6043,1.6087,1.6168,1.6217,1.6237,1.6277,1.6327,1.6368,1.6413,1.6428,1.6464,1.6477,1.6531,1.6511,1.6585,1.6556,1.6583,1.6602,1.6604,1.6611,1.6588,1.6626,1.6697,1.6705,1.6616,1.6615,1.6614,0,1.6076,1.6156,1.6215,1.6238,1.6296,1.6323,1.6349,1.6392,1.6423,1.6467,1.6487,1.6538,1.6566,1.6605,1.6631,1.6614,1.6702,1.6686,1.6716,1.6716,1.6735,1.6733,1.6809,1.6753,1.6752,1.6752,1.6752,0,1.6142,1.6192,1.623,1.6266,1.6322,1.6346,1.6401,1.6427,1.6465,1.6506,1.6519,1.6558,1.659,1.6633,1.6654,1.6712,1.6725,1.6739,1.6743,1.6737,1.6735,1.6755,1.6751,1.6755,1.6754,1.6754,1.6753,0,1.6189,1.6217,1.6281,1.6331,1.6344,1.6383,1.6425,1.646,1.6484,1.6537,1.655,1.6588,1.664,1.6669,1.6735,1.6748,1.6812,1.6816,1.6796,1.6798,1.6827,1.6824,1.6918,1.6931,1.6867,1.6867,1.6868,0,1.6229,1.6267,1.6319,1.6347,1.6373,1.6418,1.6449,1.6474,1.6506,1.6558,1.6587,1.6639,1.6682,1.6763,1.6797,1.6846,1.6851,1.688,1.6858,1.685,1.685,1.6847,1.685,1.6884,1.6885,1.6885,1.6885,0,1.6296,1.6308,1.6351,1.6398,1.6434,1.6473,1.6512,1.6535,1.6567,1.6601,1.6653,1.6686,1.6751,1.6802,1.6854,1.6881,1.6888,1.6892,1.6901,1.6895,1.6882,1.6888,1.6806,1.689,1.6889,1.6889,1.6889,1.6889,1.634,1.6374,1.6415,1.6463,1.6494,1.653,1.6565,1.6592,1.6635,1.6689,1.6702,1.6756,1.6799,1.6869,1.6897,1.694,1.6935,1.6949,1.6952,1.6955,1.6955,1.6875,1.6949,1.6949,1.6949,1.6949,1.6949,0,1.6407,1.6434,1.6477,1.653,1.6567,1.657,1.6612,1.6643,1.669,1.6728,1.6769,1.6828,1.6877,1.6914,1.6964,1.6991,1.6995,1.7003,1.7001,1.7007,1.6958,1.6944,1.6998,1.6998,1.6998,1.6998,1.6998,1.6998,1.6446,1.6503,1.6519,1.659,1.6617,1.6669,1.6693,1.6726,1.6756,1.682,1.6861,1.6884,1.6922,1.6974,1.7019,1.7028,1.7046,1.7053,1.7063,1.7016,1.7011,1.7006,1.6993,1.7056,1.7057,1.7108,1.7109,1.7109]},{"header":{"parameterUnit":"m.s-1","parameterCategory":1,"la1":30.2991,"la2":30.254,"lo1":-89.0895,"lo2":-89.0444,"dy":0.0017,"dx":0.0017,"nx":28,"ny":28,"refTime":"2024-03-20T21:00:00:Z","depth":0,"parameterNumber":3,"parameterNumberName":"V-component_of_WINDS"},"data":[0,0,0,0,0,0,0,0,0,0,0,0,0,0,0,0,0,0,0,0,0,0,0,0,0,0,0,0,0,0,0,0,0,0,0,0,0,0,0,0,0,0,0,0,0,0,0,0,0,0,0,0,0,0,0,0,0,0,3.4462,3.4462,0,3.4431,3.4431,3.443,3.4444,3.4445,3.4446,3.4447,3.4408,3.4406,3.4404,0,0,0,0,0,0,0,0,0,0,0,0,0,3.4528,3.4527,3.4462,3.4462,3.4462,3.4431,3.4431,3.443,3.4444,3.4445,3.4446,3.4447,3.4408,3.4406,3.4404,0,0,0,0,0,0,0,0,0,0,0,0,0,3.4498,3.4526,3.4462,3.4465,3.4465,3.4431,3.4431,3.443,3.4444,3.4445,3.4446,3.4448,3.4409,3.4407,3.4404,3.4363,0,0,3.4396,3.4395,0,0,0,0,0,0,0,0,3.45,3.4496,3.4465,3.4465,3.4465,3.4443,3.4439,3.4407,3.4444,3.4452,3.4447,3.4448,3.4418,3.4415,3.4406,3.4362,3.436,3.4396,3.4394,3.4393,3.4392,0,0,0,0,0,0,0,3.4502,3.4497,3.445,3.4465,3.4464,3.4466,3.4463,3.4433,3.4428,3.4451,3.4452,3.4449,3.4418,3.4409,3.4405,3.4359,3.4396,3.4393,3.4392,3.4391,3.4278,3.4277,0,0,0,0,0,0,3.4505,3.4499,3.4451,3.4449,3.4486,3.4464,3.446,3.4449,3.4429,3.4427,3.4448,3.4449,3.4413,3.4408,3.4404,3.4354,3.4393,3.439,3.4389,3.4279,3.4278,3.4276,0,0,0,0,0,0,3.4506,3.45,3.4452,3.4474,3.4468,3.4461,3.4448,3.4447,3.4438,3.4426,3.4425,3.4439,3.4413,3.4408,3.4373,3.4353,3.4389,3.4387,3.4281,3.4279,3.4277,3.4254,0,0,0,0,0,0,3.4508,3.4501,3.4487,3.4474,3.4467,3.4424,3.4447,3.4446,3.4434,3.4436,3.4418,3.4416,3.4414,3.4377,3.4371,3.435,3.4385,3.4283,3.428,3.4278,3.4257,3.4252,3.4247,0,0,0,0,0,3.451,3.4481,3.4486,3.448,3.445,3.4423,3.4419,3.4419,3.4432,3.4417,3.4409,3.4416,3.4356,3.4374,3.4366,3.4344,3.4284,3.4281,3.4278,3.4259,3.4253,3.4247,0,0,0,0,0,0,3.449,3.4479,3.4485,3.4451,3.4438,3.4425,3.4406,3.4412,3.4394,3.4396,3.4395,3.4391,3.4355,3.4346,3.4366,3.4303,3.4322,3.4317,3.431,3.4304,3.4299,3.4301,3.4382,0,0,0,0,0,3.4482,3.4463,3.4454,3.4424,3.4418,3.4413,3.4401,3.4403,3.4388,3.4382,3.4372,3.4356,3.4333,3.4318,3.4297,3.4256,3.4251,3.4237,3.4232,3.4228,3.4223,3.4199,3.4192,3.4266,3.4266,3.4266,0,0,3.4463,3.4455,3.4443,3.442,3.441,3.4388,3.4408,3.4385,3.4368,3.4378,3.4345,3.4337,3.4319,3.4281,3.4263,3.4272,3.4202,3.4224,3.4221,3.4219,3.4195,3.4188,3.4182,3.4264,3.4264,3.4264,0,0,3.442,3.4413,3.4387,3.4377,3.4362,3.436,3.4353,3.434,3.4336,3.4303,3.431,3.4289,3.425,3.4237,3.4225,3.4175,3.418,3.4168,3.4143,3.4119,3.4113,3.4108,3.4088,3.4081,3.4164,3.4164,3.4164,0,3.4398,3.4368,3.4372,3.4348,3.4336,3.4347,3.4319,3.4309,3.4287,3.4278,3.4289,3.424,3.4229,3.4187,3.4175,3.4165,3.4156,3.417,3.4114,3.4109,3.4104,3.4085,3.4078,3.4162,3.4163,3.4163,3.4163,0,3.4342,3.4321,3.4301,3.4282,3.4269,3.4243,3.424,3.4226,3.4228,3.4223,3.4189,3.4176,3.4151,3.4142,3.4143,3.4099,3.4105,3.4115,3.4134,3.4095,3.4078,3.4071,3.416,3.4161,3.4161,3.4162,0,0,3.4284,3.4268,3.426,3.4251,3.4236,3.4218,3.4192,3.417,3.4156,3.4141,3.4117,3.4084,3.4093,3.408,3.408,3.4059,3.4018,3.4071,3.4071,3.406,3.3966,3.3958,3.395,3.4022,3.4021,3.402,3.3967,0,3.4237,3.4194,3.4196,3.4154,3.4133,3.4143,3.4119,3.4106,3.4101,3.408,3.4074,3.405,3.4065,3.4056,3.4037,3.4028,3.3999,3.4032,3.3997,3.3996,3.4,3.3941,3.3932,3.3883,3.3961,3.3959,3.3959,0,3.4178,3.4162,3.4119,3.4106,3.4097,3.4076,3.4056,3.4037,3.4021,3.4019,3.4004,3.4007,3.3977,3.3998,3.3956,3.3978,3.3964,3.3957,3.3955,3.3951,3.3974,3.3932,3.3867,3.3859,3.3948,3.3949,3.395,0,3.4137,3.4105,3.4075,3.4067,3.4051,3.4036,3.4029,3.4015,3.4001,3.3982,3.3973,3.395,3.3937,3.3918,3.3914,3.393,3.3871,3.3892,3.3866,3.3866,3.3852,3.3852,3.3782,3.3846,3.3846,3.3846,3.3846,0,3.4084,3.4057,3.4056,3.4037,3.4006,3.4008,3.3976,3.3969,3.3957,3.3935,3.3941,3.392,3.3917,3.3894,3.389,3.3854,3.3849,3.3844,3.3843,3.3842,3.3843,3.3832,3.3835,3.3844,3.3844,3.3845,3.3845,0,3.4033,3.4032,3.3999,3.3988,3.3984,3.3961,3.395,3.3931,3.3927,3.3898,3.3892,3.3884,3.3857,3.3852,3.382,3.3817,3.3775,3.3778,3.378,3.378,3.3754,3.3755,3.3672,3.366,3.3734,3.3733,3.3732,0,3.3999,3.3978,3.3965,3.3952,3.3944,3.3922,3.3909,3.391,3.3895,3.3875,3.3857,3.3832,3.3812,3.3768,3.3758,3.3733,3.3734,3.3707,3.373,3.373,3.3731,3.3732,3.3729,3.3701,3.3701,3.37,3.3699,0,3.3937,3.3938,3.3919,3.39,3.3884,3.3869,3.3854,3.3842,3.3841,3.3823,3.3797,3.3782,3.375,3.3723,3.3698,3.3688,3.3692,3.3692,3.3685,3.3683,3.3685,3.3682,3.3766,3.3694,3.3694,3.3695,3.3695,3.3695,3.3892,3.3873,3.3861,3.384,3.3829,3.3815,3.3796,3.379,3.377,3.3745,3.3746,3.3717,3.37,3.3667,3.3655,3.363,3.3639,3.3628,3.3625,3.3622,3.3618,3.369,3.3626,3.3626,3.3626,3.3626,3.3627,0,3.3829,3.3822,3.3803,3.3783,3.3765,3.3774,3.3758,3.3742,3.3717,3.3702,3.3683,3.3652,3.3626,3.3614,3.3588,3.357,3.3572,3.3563,3.3564,3.3561,3.3613,3.3622,3.3563,3.3563,3.3563,3.3563,3.3563,3.3563,3.3794,3.3763,3.3762,3.3725,3.3717,3.3691,3.368,3.3667,3.3655,3.3621,3.36,3.3594,3.3579,3.3552,3.3528,3.3525,3.3514,3.3504,3.3502,3.3551,3.3557,3.3563,3.3571,3.3502,3.3502,3.3451,3.345,3.345]}]]